Weather in Konovalovka

Russia / Samara Oblast     53°06′16″N   51°32′26″E
temp.,
°C
wind,
m/s
gust,
m/s
humid.,
%
clouds,
%
prec.,
mm/h
press.,
hPa
HPBL,
m
3 march, wed
wed301:00−1sw4898100 0.9 1002315
04:00−2w3398100 1.4 100275
07:00−4wnw2395100 0.1 100130
10:00−3wnw3594100 0.1 1003207
13:00−2wnw469686 0.1 1003457
16:00−2wnw588992 0.3 1004849
19:00−6wnw4991100 0.1 1005231
22:00−7wnw5129498 0.2 1007397
4 march, thu
thu401:00−10w479595 0.1 1007106
04:00−12wsw479597 0.1 1009127
07:00−13sw479676 0.0 1008135
10:00−9sw6119260 0.0 1008334
13:00−5sw8139398 0.1 1006631
16:00−3sw9169399 0.3 1003912
19:000wsw101797100 1.6 10011035
22:00+1wsw91589100 1.6 1003891
5 march, fri
fri501:000wsw81397100 0.3 1003738
04:00−1sw71395100 1.0 1003624
07:00−2sw71395100 0.3 1003528
10:00−1sw81496100 2.3 1002727
13:000sw613100100 1.5 1001606
16:00+1wsw815100100 3.1 1002578
19:00−3nnw61092100 0.6 1005414
22:00−9nnw349366 0.6 101076
6 march, sat
sat601:00−13nnw22893 0.0 101321
04:00−16nnw118229 0.0 101520
07:00−15ese127890 0.0 101520
10:00−10se237995 0.0 1014127
13:00−7se2376100 0.0 1012257
16:00−6sse1281100 0.0 1010278
19:00−7wnw2294100 0.1 100933
22:00−10wnw489699 0.2 1010155
7 march, sun
sun701:00−13wnw499651 0.0 1010187
04:00−16w449755 0.0 101281
07:00−19wnw349861 0.0 101373
10:00−16w359350 0.0 1015241
13:00−13sw359075 0.0 1015368
16:00−12ssw479059 0.0 1014371
19:00−14ssw5109135 0.0 1012247
22:00−10ssw7139168 0.0 1010480